| time (UTC) | temp F | wind direction | speed knots | gust knots | rain 1hr in | rain 24hr in | rain mn in | humidity % | barometer mb |
| 20260510040704 | 63 | 11 | 0.0 | 0.9 | 0.00 | 0.00 | 0.00 | 69 | 1015.6 |
| 20260510040203 | 64 | 11 | 0.0 | 1.7 | 0.00 | 0.00 | 0.00 | 68 | 1015.6 |
| 20260510033705 | 65 | 11 | 0.0 | 0.0 | 0.00 | 0.00 | 0.00 | 65 | 1015.5 |
| 20260510030204 | 67 | 40 | 0.0 | 2.6 | 0.00 | 0.00 | 0.00 | 58 | 1015.8 |
| 20260510023704 | 69 | 333 | 0.9 | 2.6 | 0.00 | 0.00 | 0.00 | 54 | 1016.0 |
| 20260510023205 | 69 | 283 | 0.9 | 2.6 | 0.00 | 0.00 | 0.00 | 54 | 1016.0 |
| 20260510020705 | 70 | 0 | 0.9 | 2.6 | 0.00 | 0.00 | 0.00 | 53 | 1016.2 |
| 20260510020204 | 71 | 15 | 1.7 | 2.6 | 0.00 | 0.00 | 0.00 | 52 | 1016.2 |
| 20260510013704 | 70 | 8 | 1.7 | 4.3 | 0.00 | 0.00 | 0.00 | 53 | 1016.7 |
| 20260510013205 | 70 | 20 | 0.0 | 4.3 | 0.00 | 0.00 | 0.00 | 52 | 1016.7 |
| 20260510010704 | 70 | 344 | 0.9 | 1.7 | 0.00 | 0.00 | 0.00 | 52 | 1016.8 |
| 20260510010204 | 70 | 340 | 1.7 | 5.2 | 0.00 | 0.00 | 0.00 | 52 | 1016.8 |
| 20260510003704 | 70 | 342 | 1.7 | 5.2 | 0.00 | 0.00 | 0.00 | 52 | 1017.1 |
| 20260510003203 | 70 | 322 | 0.9 | 7.0 | 0.00 | 0.00 | 0.00 | 51 | 1017.2 |
| 20260510000703 | 70 | 338 | 2.6 | 7.8 | 0.00 | 0.00 | 0.00 | 51 | 1017.5 |
| 20260509233703 | 71 | 9 | 2.6 | 7.0 | 0.00 | 0.00 | 0.00 | 51 | 1017.7 |
| 20260509233205 | 71 | 0 | 1.7 | 7.8 | 0.00 | 0.00 | 0.00 | 50 | 1017.7 |
| 20260509230704 | 72 | 267 | 1.7 | 4.3 | 0.00 | 0.00 | 0.00 | 49 | 1018.0 |
| 20260509230204 | 71 | 201 | 0.9 | 8.7 | 0.00 | 0.00 | 0.00 | 49 | 1018.3 |
| 20260509223704 | 70 | 287 | 1.7 | 10.4 | 0.00 | 0.00 | 0.00 | 52 | 1018.5 |
| 20260509223204 | 69 | 293 | 2.6 | 8.7 | 0.00 | 0.00 | 0.00 | 53 | 1018.6 |
| 20260509220704 | 71 | 320 | 2.6 | 7.8 | 0.00 | 0.00 | 0.00 | 52 | 1018.6 |
| 20260509220204 | 71 | 274 | 1.7 | 7.0 | 0.00 | 0.00 | 0.00 | 52 | 1018.7 |
| 20260509213704 | 70 | 277 | 2.6 | 7.8 | 0.00 | 0.00 | 0.00 | 52 | 1018.8 |
| 20260509213205 | 70 | 292 | 2.6 | 7.0 | 0.00 | 0.00 | 0.00 | 51 | 1018.8 |
| 20260509210203 | 70 | 354 | 2.6 | 6.1 | 0.00 | 0.00 | 0.00 | 53 | 1019.0 |
| 20260509203703 | 70 | 304 | 2.6 | 7.0 | 0.00 | 0.00 | 0.00 | 54 | 1019.2 |
| 20260509203203 | 69 | 288 | 1.7 | 7.0 | 0.00 | 0.00 | 0.00 | 54 | 1019.2 |
| 20260509200705 | 68 | 336 | 1.7 | 4.3 | 0.00 | 0.00 | 0.00 | 56 | 1019.7 |
| 20260509200204 | 67 | 292 | 4.3 | 8.7 | 0.00 | 0.00 | 0.00 | 55 | 1019.7 |
| 20260509193704 | 68 | 333 | 1.7 | 7.0 | 0.00 | 0.00 | 0.00 | 56 | 1020.1 |
| 20260509193204 | 67 | 286 | 2.6 | 7.8 | 0.00 | 0.00 | 0.00 | 58 | 1020.2 |
| 20260509190704 | 66 | 29 | 2.6 | 6.1 | 0.00 | 0.00 | 0.00 | 59 | 1020.4 |
| 20260509183704 | 66 | 303 | 1.7 | 2.6 | 0.00 | 0.00 | 0.00 | 61 | 1020.6 |
| 20260509183204 | 65 | 19 | 1.7 | 5.2 | 0.00 | 0.00 | 0.00 | 62 | 1020.6 |
| 20260509180704 | 64 | 4 | 1.7 | 6.1 | 0.00 | 0.00 | 0.00 | 64 | 1020.9 |
| 20260509180205 | 64 | 25 | 0.9 | 4.3 | 0.00 | 0.00 | 0.00 | 64 | 1020.8 |
| 20260509173704 | 62 | 322 | 2.6 | 5.2 | 0.00 | 0.00 | 0.00 | 68 | 1021.0 |
| 20260509173203 | 62 | 293 | 0.9 | 5.2 | 0.00 | 0.00 | 0.00 | 68 | 1021.1 |
| 20260509170704 | 60 | 303 | 1.7 | 2.6 | 0.00 | 0.00 | 0.00 | 72 | 1021.2 |
| 20260509170204 | 59 | 308 | 1.7 | 2.6 | 0.00 | 0.00 | 0.00 | 73 | 1021.2 |
| 20260509163704 | 58 | 285 | 1.7 | 6.1 | 0.00 | 0.00 | 0.00 | 76 | 1021.5 |
| 20260509163204 | 58 | 288 | 0.9 | 4.3 | 0.00 | 0.00 | 0.00 | 76 | 1021.5 |
| 20260509160704 | 57 | 295 | 1.7 | 2.6 | 0.00 | 0.00 | 0.00 | 79 | 1021.7 |
| 20260509160204 | 57 | 355 | 0.9 | 2.6 | 0.00 | 0.00 | 0.00 | 80 | 1021.7 |
| 20260509153704 | 56 | 298 | 1.7 | 2.6 | 0.00 | 0.00 | 0.00 | 82 | 1021.9 |
| 20260509153205 | 55 | 293 | 0.9 | 2.6 | 0.00 | 0.00 | 0.00 | 83 | 1021.9 |
| 20260509150704 | 55 | 158 | 0.0 | 1.7 | 0.00 | 0.00 | 0.00 | 84 | 1022.1 |
| 20260509150203 | 55 | 265 | 0.0 | 2.6 | 0.00 | 0.00 | 0.00 | 84 | 1022.1 |
| 20260509143703 | 54 | 60 | 0.9 | 1.7 | 0.00 | 0.00 | 0.00 | 86 | 1022.2 |
| 20260509143204 | 54 | 111 | 0.0 | 2.6 | 0.00 | 0.00 | 0.00 | 86 | 1022.3 |
| 20260509140703 | 52 | 91 | 0.0 | 0.0 | 0.00 | 0.00 | 0.00 | 89 | 1022.4 |
| 20260509140203 | 52 | 91 | 0.0 | 0.0 | 0.00 | 0.00 | 0.00 | 89 | 1022.4 |
| 20260509133703 | 50 | 98 | 0.0 | 0.0 | 0.00 | 0.00 | 0.00 | 89 | 1022.4 |
| 20260509133204 | 50 | 98 | 0.0 | 0.0 | 0.00 | 0.00 | 0.00 | 89 | 1022.4 |
| 20260509130704 | 50 | 98 | 0.0 | 0.9 | 0.00 | 0.00 | 0.00 | 89 | 1022.3 |
| 20260509130204 | 50 | 98 | 0.9 | 1.7 | 0.00 | 0.00 | 0.00 | 89 | 1022.3 |
| 20260509123704 | 50 | 98 | 0.0 | 0.0 | 0.00 | 0.00 | 0.00 | 89 | 1022.2 |
| 20260509123203 | 50 | 98 | 0.0 | 0.0 | 0.00 | 0.00 | 0.00 | 90 | 1022.2 |
| 20260509120704 | 50 | 98 | 0.0 | 0.0 | 0.00 | 0.00 | 0.00 | 88 | 1022.4 |
| 20260509120204 | 50 | 98 | 0.0 | 0.0 | 0.00 | 0.00 | 0.00 | 89 | 1022.4 |
| 20260509113704 | 51 | 98 | 0.0 | 0.0 | 0.00 | 0.00 | 0.00 | 87 | 1022.5 |
| 20260509113204 | 51 | 98 | 0.0 | 0.0 | 0.00 | 0.00 | 0.00 | 87 | 1022.5 |
| 20260509110704 | 52 | 98 | 0.0 | 0.0 | 0.00 | 0.00 | 0.00 | 86 | 1022.7 |
| 20260509103704 | 54 | 235 | 0.0 | 0.0 | 0.00 | 0.00 | 0.00 | 84 | 1022.7 |
| 20260509103203 | 54 | 235 | 0.0 | 1.7 | 0.00 | 0.00 | 0.00 | 83 | 1022.7 |
| 20260509100705 | 55 | 260 | 0.0 | 0.9 | 0.00 | 0.00 | 0.00 | 83 | 1022.8 |
| 20260509100204 | 55 | 260 | 0.0 | 1.7 | 0.00 | 0.00 | 0.00 | 83 | 1022.9 |
| 20260509093204 | 55 | 260 | 0.0 | 2.6 | 0.00 | 0.00 | 0.00 | 82 | 1023.0 |
| 20260509090704 | 55 | 260 | 1.7 | 4.3 | 0.00 | 0.00 | 0.00 | 81 | 1023.2 |
| 20260509090204 | 55 | 263 | 1.7 | 4.3 | 0.00 | 0.00 | 0.00 | 81 | 1023.3 |
| 20260509083705 | 55 | 278 | 0.9 | 2.6 | 0.00 | 0.00 | 0.00 | 81 | 1023.3 |
| 20260509083204 | 55 | 183 | 0.9 | 5.2 | 0.00 | 0.00 | 0.00 | 81 | 1023.2 |
| 20260509080704 | 56 | 176 | 0.9 | 4.3 | 0.00 | 0.00 | 0.00 | 80 | 1023.2 |
| 20260509080204 | 55 | 273 | 1.7 | 5.2 | 0.00 | 0.00 | 0.00 | 80 | 1023.3 |
| 20260509073704 | 55 | 179 | 2.6 | 7.0 | 0.00 | 0.00 | 0.00 | 79 | 1023.1 |
| 20260509073204 | 55 | 186 | 1.7 | 4.3 | 0.00 | 0.00 | 0.00 | 79 | 1023.1 |
| 20260509070704 | 55 | 117 | 0.9 | 2.6 | 0.00 | 0.00 | 0.00 | 80 | 1023.0 |
| 20260509070204 | 55 | 117 | 0.9 | 2.6 | 0.00 | 0.00 | 0.00 | 80 | 1023.0 |
| 20260509063705 | 54 | 143 | 0.0 | 0.9 | 0.00 | 0.00 | 0.00 | 80 | 1022.9 |
| 20260509060704 | 55 | 143 | 0.9 | 1.7 | 0.00 | 0.00 | 0.00 | 78 | 1022.8 |
| 20260509060204 | 55 | 135 | 0.0 | 1.7 | 0.00 | 0.00 | 0.00 | 78 | 1022.8 |
| 20260509053704 | 56 | 182 | 0.9 | 2.6 | 0.00 | 0.00 | 0.00 | 76 | 1022.7 |
| 20260509053204 | 56 | 234 | 0.9 | 4.3 | 0.00 | 0.00 | 0.00 | 76 | 1022.7 |
| 20260509050704 | 57 | 213 | 1.7 | 2.6 | 0.00 | 0.00 | 0.00 | 74 | 1022.6 |
| 20260509050204 | 57 | 163 | 0.9 | 2.6 | 0.00 | 0.00 | 0.00 | 74 | 1022.6 |
| 20260509043704 | 57 | 244 | 0.9 | 2.6 | 0.00 | 0.00 | 0.00 | 73 | 1022.5 |